カタログに戻る

YUNHAI 1-04

運用中科学SSO
NORAD 58073·PAYLOAD·🇨🇳 China

打ち上げ Oct 15, 2023 から Jiuquan Satellite Launch Center

Loading…

次のパス (今後24時間)

TLE

最新Source: Space-Track

元期: Sep 14, 2026, 23:12 UTC

1 58073U 23159A   26257.96726146  .00000275  00000-0  11729-3 0  9993
2 58073  98.4948 281.9680 0000205   4.4729 355.6457 14.32620316152656

AllMySatでYUNHAI 1-04をリアルタイム追跡

Download on the App Store